EW8780 Weather Reports


Display with metric or nautical units.
time (UTC)temp
F
wind
direction
speed
MPH
gust
MPH
rain 1hr
in
rain 24hr
in
rain mn
in
humidity
%
barometer
mb
20260510213038 66 205 0.0 5.0 0.00 0.01 0.00 72 1015.2
20260510211541 66 239 1.0 5.0 0.00 0.01 0.00 73 1015.2
20260510210037 68 219 3.0 7.0 0.00 0.01 0.00 72 1015.4
20260510204539 69 176 1.0 4.0 0.00 0.01 0.00 69 1015.4
20260510203035 68 215 2.0 5.0 0.00 0.01 0.00 70 1015.4
20260510201532 65 213 0.0 5.0 0.00 0.01 0.00 72 1015.5
20260510200033 64 202 2.0 9.0 0.00 0.01 0.00 74 1015.7
20260510194530 64 219 4.0 9.0 0.00 0.01 0.00 77 1015.7
20260510193030 64 221 4.0 10.0 0.00 0.01 0.00 75 1015.7
20260510191524 63 224 3.0 8.0 0.00 0.01 0.00 80 1015.9
20260510190024 60 227 4.0 8.0 0.00 0.01 0.00 80 1016.0
20260510184521 60 236 1.0 8.0 0.00 0.01 0.00 83 1016.1
20260510183020 60 225 4.0 7.0 0.00 0.01 0.00 82 1015.9
20260510181519 61 208 4.0 7.0 0.00 0.01 0.00 83 1015.8
20260510180017 60 221 3.0 7.0 0.00 0.01 0.00 83 1015.8
20260510174515 62 179 1.0 5.0 0.00 0.01 0.00 83 1015.8
20260510173012 61 73 0.0 0.0 0.00 0.01 0.00 83 1015.7
20260510171509 60 184 0.0 0.0 0.00 0.01 0.00 86 1015.5
20260510170011 58 208 0.0 0.0 0.00 0.01 0.00 86 1015.7
20260510164608 57 209 0.0 0.0 0.00 0.01 0.00 88 1015.8
20260510163002 57 215 0.0 0.0 0.00 0.01 0.00 89 1015.9
20260510161559 56 215 0.0 0.0 0.00 0.01 0.00 90 1015.8
20260510160055 56 215 0.0 0.0 0.00 0.01 0.00 92 1015.7
20260510154552 56 215 0.0 0.0 0.00 0.01 0.00 94 1015.6
20260510153054 56 215 0.0 0.0 0.00 0.01 0.00 96 1015.5
20260510151546 55 215 0.0 0.0 0.00 0.01 0.00 96 1015.4
20260510150047 55 215 0.0 0.0 0.00 0.01 0.00 96 1015.4
20260510144548 55 215 0.0 0.0 0.00 0.01 0.00 96 1015.3
20260510143044 54 215 0.0 0.0 0.00 0.01 0.00 96 1015.3
20260510141546 54 215 0.0 0.0 0.00 0.01 0.00 96 1015.1
20260510140036 54 215 0.0 0.0 0.00 0.01 0.00 96 1014.9
20260510134535 54 215 0.0 0.0 0.00 0.01 0.00 96 1014.7
20260510133034 53 215 0.0 0.0 0.00 0.01 0.00 96 1014.7
20260510131533 53 215 0.0 0.0 0.00 0.01 0.00 96 1014.5
20260510130044 53 215 0.0 0.0 0.00 0.01 0.00 96 1014.4
20260510124536 53 215 0.0 0.0 0.00 0.01 0.00 95 1014.4
20260510123031 53 215 0.0 0.0 0.00 0.01 0.00 95 1014.4
20260510121530 53 215 0.0 0.0 0.00 0.01 0.00 95 1014.3
20260510120031 53 215 0.0 0.0 0.00 0.01 0.00 95 1014.4
20260510114526 54 215 0.0 0.0 0.00 0.01 0.00 95 1014.4
20260510113025 54 215 0.0 0.0 0.00 0.01 0.00 95 1014.4
20260510111525 54 215 0.0 0.0 0.00 0.01 0.00 95 1014.4
20260510110036 54 215 0.0 0.0 0.00 0.01 0.00 95 1014.6
20260510104524 54 215 0.0 0.0 0.00 0.01 0.00 95 1014.4
20260510103024 54 215 0.0 0.0 0.00 0.01 0.00 95 1014.3
20260510101531 54 215 0.0 0.0 0.00 0.01 0.00 95 1014.4
20260510100024 54 215 0.0 0.0 0.00 0.01 0.00 95 1014.4
20260510094523 54 215 0.0 0.0 0.00 0.01 0.00 95 1014.4
20260510093020 54 215 0.0 0.0 0.00 0.01 0.00 95 1014.4
20260510091524 54 215 0.0 0.0 0.00 0.01 0.00 95 1014.3
20260510090026 54 215 0.0 0.0 0.00 0.01 0.00 95 1014.4
20260510084517 54 215 0.0 0.0 0.00 0.01 0.00 95 1014.4
20260510083016 54 215 0.0 0.0 0.00 0.01 0.00 94 1014.3
20260510081515 54 215 0.0 0.0 0.00 0.01 0.00 95 1014.3
20260510080017 54 215 0.0 0.0 0.00 0.01 0.00 94 1014.1
20260510074514 54 215 0.0 0.0 0.00 0.01 0.00 94 1014.1
20260510073013 54 215 0.0 0.0 0.01 0.01 0.00 94 1014.1
20260510071517 54 215 0.0 0.0 0.01 0.01 0.00 94 1014.1
20260510070010 54 215 0.0 0.0 0.01 0.01 0.00 94 1014.3
20260510064525 54 215 0.0 0.0 0.01 0.01 0.01 93 1014.5
20260510063008 54 215 0.0 0.0 0.00 0.00 0.00 93 1014.7
20260510061516 54 215 0.0 0.0 0.00 0.00 0.00 93 1014.9
20260510060009 54 215 0.0 0.0 0.00 0.00 0.00 92 1014.8
20260510054506 54 215 0.0 0.0 0.00 0.00 0.00 92 1014.6
20260510053017 54 215 0.0 0.0 0.00 0.00 0.00 92 1014.5
20260510051511 55 215 0.0 0.0 0.00 0.00 0.00 92 1014.7
20260510050004 55 215 0.0 0.0 0.00 0.00 0.00 91 1014.7
20260510044507 55 215 0.0 0.0 0.00 0.00 0.00 91 1014.6
20260510043003 55 215 0.0 0.0 0.00 0.00 0.00 91 1014.5
20260510041508 55 215 0.0 0.0 0.00 0.00 0.00 90 1014.4
20260510040002 55 215 0.0 0.0 0.00 0.00 0.00 90 1014.3
20260510034501 55 215 0.0 0.0 0.00 0.00 0.00 90 1014.0
20260510033136 55 215 0.0 0.0 0.00 0.00 0.00 90 1014.0
20260510031600 56 215 0.0 0.0 0.00 0.00 0.00 89 1014.0
20260510030059 56 215 0.0 2.0 0.00 0.00 0.00 88 1014.1
20260510024606 56 215 0.0 2.0 0.00 0.00 0.00 88 1014.0
20260510023058 56 215 0.0 2.0 0.00 0.00 0.00 87 1013.9
20260510021557 56 215 0.0 4.0 0.00 0.00 0.00 87 1014.0
20260510020058 56 212 2.0 5.0 0.00 0.00 0.00 87 1014.1
20260510014556 57 206 1.0 4.0 0.00 0.00 0.00 86 1014.2
20260510013055 57 215 1.0 4.0 0.00 0.00 0.00 85 1014.0
20260510011555 58 190 0.0 3.0 0.00 0.00 0.00 85 1014.1
20260510010054 58 157 1.0 3.0 0.00 0.00 0.00 85 1014.1
20260510004553 58 153 0.0 3.0 0.00 0.00 0.00 84 1014.2
20260510003103 59 217 2.0 5.0 0.00 0.00 0.00 84 1014.2
20260510001551 58 217 2.0 5.0 0.00 0.00 0.00 84 1014.2
20260510000054 58 194 2.0 5.0 0.00 0.00 0.00 85 1014.3
20260509234554 58 200 2.0 6.0 0.00 0.00 0.00 85 1014.3
20260509233049 58 208 3.0 5.0 0.00 0.00 0.00 84 1014.3
20260509231553 58 203 2.0 5.0 0.00 0.00 0.00 85 1014.3
20260509230052 58 230 1.0 5.0 0.00 0.00 0.00 85 1014.4
20260509224556 59 198 3.0 7.0 0.00 0.00 0.00 84 1014.5
20260509223051 58 225 3.0 7.0 0.00 0.00 0.00 85 1014.5
20260509221546 59 203 3.0 6.0 0.00 0.00 0.00 84 1014.5
20260509220046 59 204 2.0 6.0 0.00 0.00 0.00 83 1014.6
20260509214545 60 229 2.0 7.0 0.00 0.00 0.00 85 1014.6